W8MRL Weather Reports


time (UTC)temp
F
wind
direction
speed
knots
gust
knots
rain 1hr
in
rain 24hr
in
rain mn
in
humidity
%
barometer
mb
20260507153028 54 283 2.6 7.0 0.00 0.00 0.00 56 1019.9
20260507151527 54 285 2.6 6.1 0.00 0.00 0.00 54 1019.8
20260507150024 53 256 2.6 6.1 0.00 0.00 0.00 54 1019.7
20260507144523 53 297 2.6 7.0 0.00 0.00 0.00 53 1019.8
20260507143022 53 198 1.7 6.1 0.00 0.00 0.00 54 1019.7
20260507141519 52 315 2.6 5.2 0.00 0.00 0.00 54 1019.8
20260507140018 51 305 0.9 7.0 0.00 0.00 0.00 60 1019.8
20260507134519 51 321 1.7 5.2 0.00 0.00 0.00 59 1019.9
20260507133015 51 322 0.9 3.5 0.00 0.00 0.00 61 1019.7
20260507131510 50 18 0.9 2.6 0.00 0.00 0.00 67 1019.8
20260507130007 48 330 0.0 3.5 0.00 0.00 0.00 74 1019.8
20260507124504 46 269 0.9 2.6 0.00 0.00 0.00 75 1019.8
20260507123106 44 304 0.9 2.6 0.00 0.00 0.00 80 1019.8
20260507121601 42 309 0.0 2.6 0.00 0.00 0.00 83 1019.8
20260507120057 41 323 0.0 1.7 0.00 0.00 0.00 86 1019.9
20260507114605 39 302 0.0 0.9 0.00 0.00 0.00 89 1019.8
20260507113055 38 298 0.0 0.9 0.00 0.00 0.00 91 1019.8
20260507111553 37 338 0.0 0.9 0.00 0.00 0.00 92 1019.6
20260507110153 37 338 0.0 0.0 0.00 0.00 0.00 93 1019.5
20260507104550 37 338 0.0 0.0 0.00 0.00 0.00 93 1019.3
20260507103053 37 339 0.0 0.0 0.00 0.00 0.00 93 1019.2
20260507101549 37 338 0.0 0.0 0.00 0.00 0.00 92 1019.2
20260507100046 38 338 0.0 0.0 0.00 0.00 0.00 92 1019.1
20260507094547 38 338 0.0 0.0 0.00 0.00 0.00 93 1019.2
20260507093044 38 338 0.0 0.9 0.00 0.00 0.00 94 1019.1
20260507091543 38 338 0.0 0.0 0.00 0.00 0.00 93 1019.0
20260507090043 39 338 0.0 0.0 0.00 0.00 0.00 94 1018.8
20260507084544 39 338 0.0 0.0 0.00 0.00 0.00 94 1018.7
20260507083047 39 338 0.0 0.0 0.00 0.00 0.00 94 1018.6
20260507081538 40 338 0.0 0.0 0.00 0.00 0.00 94 1018.5
20260507080042 40 338 0.0 0.0 0.00 0.00 0.00 95 1018.5
20260507074543 39 338 0.0 0.0 0.00 0.07 0.00 94 1018.6
20260507073035 40 338 0.0 0.0 0.00 0.07 0.00 94 1018.6
20260507071552 40 338 0.0 0.0 0.00 0.07 0.00 94 1018.6
20260507070036 40 338 0.0 0.0 0.00 0.07 0.00 94 1018.6
20260507064532 40 338 0.0 0.0 0.00 0.10 0.00 94 1018.7
20260507063032 41 338 0.0 0.0 0.00 0.10 0.00 94 1018.9
20260507061529 42 338 0.0 0.0 0.00 0.10 0.00 94 1018.8
20260507060026 42 338 0.0 0.0 0.00 0.10 0.00 94 1018.7
20260507054526 42 338 0.0 0.0 0.00 0.33 0.00 93 1018.9
20260507053025 42 338 0.0 0.0 0.00 0.33 0.00 93 1018.8
20260507051523 42 338 0.0 0.0 0.00 0.33 0.00 93 1018.9
20260507050021 43 338 0.0 0.0 0.00 0.33 0.00 93 1019.0
20260507044518 43 338 0.0 0.0 0.00 0.56 0.00 92 1019.0
20260507043018 43 338 0.0 0.0 0.00 0.56 0.00 92 1018.8
20260507041515 44 338 0.0 0.0 0.00 0.56 0.00 91 1018.7
20260507040013 44 338 0.0 0.0 0.00 0.56 0.00 91 1018.6
20260507034513 44 338 0.0 0.0 0.00 0.72 0.56 90 1018.7
20260507033012 45 338 0.0 0.0 0.00 0.72 0.56 89 1018.6
20260507031511 45 338 0.0 0.0 0.00 0.72 0.56 89 1018.7
20260507030012 46 338 0.0 0.0 0.00 0.72 0.56 89 1018.7
20260507024511 46 338 0.0 0.0 0.00 0.80 0.56 88 1018.8
20260507023010 46 338 0.0 0.0 0.00 0.80 0.56 88 1018.8
20260507021513 47 338 0.0 0.0 0.00 0.80 0.56 87 1018.7
20260507020005 48 338 0.0 0.0 0.00 0.80 0.56 87 1018.4
20260507014505 49 338 0.0 0.0 0.00 0.89 0.56 86 1018.3
20260507013003 49 338 0.0 0.0 0.00 0.89 0.56 86 1018.1
20260507011501 49 338 0.0 0.0 0.00 0.89 0.56 85 1018.0
20260507010002 49 338 0.0 0.0 0.00 0.89 0.56 82 1017.9
20260507004501 50 338 0.0 0.0 0.00 0.98 0.56 81 1017.9
20260507003059 52 338 0.0 0.0 0.00 0.98 0.56 78 1017.7
20260507001615 53 338 0.0 0.0 0.00 0.98 0.56 74 1017.4
20260507000101 55 338 0.0 0.0 0.00 0.98 0.56 72 1017.2
20260506234602 55 338 0.0 1.7 0.00 1.06 0.56 69 1017.1
20260506233055 56 314 0.0 2.6 0.00 1.06 0.56 65 1017.1
20260506231555 57 322 0.9 3.5 0.00 1.06 0.56 62 1017.0
20260506230054 57 328 0.0 2.6 0.00 1.06 0.56 63 1017.1
20260506224554 58 271 0.9 3.5 0.00 1.13 0.56 59 1017.1
20260506223054 57 316 1.7 4.3 0.00 1.13 0.56 60 1017.2
20260506221553 57 273 1.7 5.2 0.00 1.13 0.56 63 1017.3
20260506214551 57 275 0.0 3.5 0.00 1.17 0.56 61 1017.3
20260506213055 57 345 0.0 3.5 0.00 1.17 0.56 61 1017.3
20260506211548 57 323 1.7 4.3 0.00 1.17 0.56 60 1017.1
20260506210055 58 278 2.6 5.2 0.00 1.17 0.56 60 1017.0
20260506204551 58 288 0.9 4.3 0.00 1.21 0.56 63 1016.9
20260506203135 57 345 0.9 2.6 0.00 1.21 0.56 59 1017.1
20260506201548 57 348 0.0 4.3 0.00 1.21 0.56 59 1016.9
20260506200050 58 338 0.9 3.5 0.00 1.21 0.56 59 1017.0
20260506194545 59 290 0.9 3.5 0.00 1.29 0.56 61 1016.9
20260506193044 60 326 1.7 7.0 0.00 1.29 0.56 61 1017.0
20260506191545 60 52 2.6 7.0 0.00 1.29 0.56 58 1016.7
20260506190049 60 340 0.9 4.3 0.00 1.29 0.56 58 1016.8
20260506184551 60 22 0.9 4.3 0.00 1.29 0.56 61 1016.9
20260506183043 60 278 0.9 4.3 0.00 1.29 0.56 59 1016.8
20260506181541 59 321 1.7 7.0 0.00 1.29 0.56 60 1016.5
20260506180042 59 345 0.9 5.2 0.00 1.29 0.56 64 1016.6
20260506174540 60 342 0.9 6.1 0.00 1.29 0.56 61 1016.9
20260506173048 60 315 1.7 5.2 0.00 1.29 0.56 61 1017.0
20260506171536 59 23 1.7 5.2 0.00 1.29 0.56 60 1016.9
20260506170032 58 282 0.0 4.3 0.00 1.29 0.56 63 1016.9
20260506164531 57 305 2.6 6.1 0.00 1.29 0.56 63 1017.1
20260506163052 57 276 1.7 6.1 0.00 1.29 0.56 64 1017.0
20260506161528 58 332 1.7 3.5 0.00 1.29 0.56 66 1016.9
20260506160026 57 329 0.9 5.2 0.00 1.29 0.56 64 1016.7
20260506154531 56 5 1.7 4.3 0.00 1.29 0.56 68 1017.0